Regional Weather Roundup
Issued by NWS

Home | Current Version | Previous Version | Text Only | Print | Product List | Glossary On
Versions: 1 2 3 4 5 6 7 8 9 10 11 12 13 14 15 16 17 18 19 20 21 22 23 24 25 26 27 28 29 30 31 32 33 34 35 36 37 38 39 40 41 42 43 44 45 46 47 48 49 50
000
ASUS43 KMKX 280000
RWRWI

WISCONSIN REGIONAL WEATHER ROUNDUP
NATIONAL WEATHER SERVICE MILWAUKEE/SULLIVAN WI
600 PM CST FRI FEB 27 2015

NOTE: "FAIR" INDICATES FEW OR NO CLOUDS BELOW 12,000 FEET WITH NO
SIGNIFICANT WEATHER AND/OR OBSTRUCTIONS TO VISIBILITY.

WIZ001-002-006>008-014>016-023>028-280100-
NORTHWEST WISCONSIN

CITY           SKY/WX    TMP DP  RH WIND       PRES   REMARKS
SUPERIOR ARPT  CLEAR     19  -6  33 SW8       30.42S WCI   8
ASHLAND        CLEAR     15  -7  37 SW7       30.42S WCI   5
6HR MIN TEMP:  12; 6HR MAX TEMP:  19;

HAYWARD        CLEAR     12  -7  42 SW6       30.42S WCI   3
6HR MIN TEMP:   8; 6HR MAX TEMP:  16; 6HR PCP: TRACE;

SIREN          CLEAR     15  -4  43 SW5       30.45S WCI   7
CUMBERLAND     CLEAR     12  -4  48 SW8       30.43S WCI   1
RICE LAKE      CLEAR     13  -3  48 SW5       30.47S WCI   6
CHETEK         CLEAR     12  -2  52 CALM      30.47S
LADYSMITH      CLEAR     12  -4  48 SW7       30.45S WCI   2
EAU CLAIRE     NOT AVBL
MENOMONIE      CLEAR     12  -1  56 S7        30.51R WCI   1
6HR MIN TEMP:  11; 6HR MAX TEMP:  16;

NEW RICHMOND   CLEAR     13   0  56 SW10      30.47F WCI   0
OSCEOLA        CLEAR     15  -1  49 SW7       30.50F WCI   5
$$

WIZ003>005-009-010-017-018-280100-
NORTH CENTRAL WISCONSIN

CITY           SKY/WX    TMP DP  RH WIND       PRES   REMARKS
MANITOWISH WTR CLEAR     13 -11  33 W5        30.35S WCI   5
ARBOR VITAE    CLEAR     17  -5  38 W7        30.35S WCI   7
WOODRUFF       CLEAR     17  -5  38 W7        30.35S WCI   7
RHINELANDER    CLEAR      9  -5  53 W9        30.37R WCI  -4
6HR MIN TEMP:   9; 6HR MAX TEMP:  16;

EAGLE RIVER    CLEAR     12  -7  41 SW8       30.34S WCI   1
LAND O LAKES   CLEAR     15  -7  37 W5        30.34S WCI   7
PHILLIPS       CLEAR     10  -7  46 SW7       30.39R WCI  -1
6HR MIN TEMP:  10; 6HR MAX TEMP:  15;

TOMAHAWK       CLEAR     12  -7  42 CALM      30.40S
MEDFORD        CLEAR      8  -4  58 SW7       30.42S WCI  -3
MERRILL        CLEAR     10  -4  51 SW7       30.43R WCI  -1
$$

WIZ029-030-035-036-043>047-280100-
CENTRAL WISCONSIN

CITY           SKY/WX    TMP DP  RH WIND       PRES   REMARKS
WAUSAU         CLEAR     10  -4  53 W9        30.44R WCI  -3
6HR MIN TEMP:   7; 6HR MAX TEMP:  13;

MOSINEE        CLEAR     12  -2  52 W8        30.46R WCI   1
MARSHFIELD     CLEAR     10  -5  50 W7        30.45F WCI  -1
6HR MIN TEMP:   8; 6HR MAX TEMP:  14;

STEVENS POINT  CLEAR     12  -6  43 NW5       30.47S WCI   5
WAUPACA        CLEAR     18  -4  38 SW8       30.49S WCI   7
WAUTOMA        NOT AVBL
WISC RAPIDS    CLEAR     13  -8  39 W5        30.49S WCI   5
6HR MIN TEMP:  10; 6HR MAX TEMP:  17;

CAMP DOUGLAS   NOT AVBL
$$

WIZ011>013-019>022-031-037>040-048>050-280100-
NORTHEAST WISCONSIN

CITY           SKY/WX    TMP DP  RH WIND       PRES   REMARKS
ANTIGO         CLEAR      8  -4  59 W10       30.40R WCI  -6
SHAWANO        CLEAR     17  -6  37 W7        30.48S WCI   7
OCONTO         CLEAR     15  -4  42 SW9       30.47S WCI   3
STURGEON BAY   CLEAR     14  -2  48 SW10      30.49R WCI   1
6HR MIN TEMP:  12; 6HR MAX TEMP:  16;

GREEN BAY      CLEAR     15  -1  49 SW6       30.49S WCI   6
6HR MIN TEMP:  14; 6HR MAX TEMP:  19;

MANITOWOC      NOT AVBL
APPLETON       CLEAR     16  -6  38 SW10      30.48F WCI   3
CLINTONVILLE   CLEAR     14  -6  41 W6        30.48S WCI   5
OSHKOSH        CLEAR     14  -2  49 SW7       30.50S WCI   4
6HR MIN TEMP:  12; 6HR MAX TEMP:  18;

$$

WIZ032>034-041-042-053>061-280100-
SOUTHWEST WISCONSIN

CITY           SKY/WX    TMP DP  RH WIND       PRES   REMARKS
LA CROSSE      CLEAR     11  -3  53 SW12      30.55S WCI  -3
6HR MIN TEMP:  11; 6HR MAX TEMP:  17;

SPARTA         CLEAR     13  -5  44 W5        30.54R WCI   5
VIROQUA        CLEAR      9  -4  54 SW7       30.50R WCI  -2
BOSCOBEL       CLEAR     11  -6  46 SW7       30.58S WCI   0
6HR MIN TEMP:  11; 6HR MAX TEMP:  16; 6HR PCP: TRACE;

PRAIRIE DU CHI CLEAR      8  -7  50 W6        30.59S WCI  -2
PLATTEVILLE    CLEAR      5  -6  61 SW8       30.55S WCI  -9
$$

WIZ056-057-062-063-064-067-068-280100-
SOUTH CENTRAL WISCONSIN

CITY           SKY/WX    TMP DP  RH WIND       PRES   REMARKS
REEDSBURG      CLEAR     14  -3  46 W8        30.52R WCI   3
BARABOO/DELLS  CLEAR     13  -5  44 W7        30.51S WCI   3
LONE ROCK      NOT AVBL
MINERAL POINT  CLEAR     10  -6  48 SW3       30.53S
MADISON        CLEAR     11  -4  51 SW5       30.54R WCI   3
6HR MIN TEMP:  11; 6HR MAX TEMP:  16;

MIDDLETON      CLEAR     13  -6  43 SW10      30.54R WCI   0
WATERTOWN      CLEAR     11  -2  54 SW6       30.53S WCI   2
MONROE         CLEAR     10  -2  56 W9        30.54S WCI  -2
JANESVILLE     CLEAR     10  -6  48 W12       30.57S WCI  -4
$$

WIZ051-052-058>065-066-070>072-280100-
SOUTHEAST WISCONSIN

CITY           SKY/WX    TMP DP  RH WIND       PRES   REMARKS
MILWAUKEE      CLEAR     13  -5  44 SW9       30.56R WCI   1
6HR MIN TEMP:  13; 6HR MAX TEMP:  18;

WAUKESHA       CLEAR      9  -6  52 SW10      30.54S WCI  -6
MILWAUKEE/TIMM CLEAR     12  -6  44 SW10      30.55S WCI  -1
RACINE         CLEAR     11  -5  48 SW7       30.59R WCI   0
6HR MIN TEMP:  11; 6HR MAX TEMP:  15;

BURLINGTON     CLEAR      7  -6  55 SW7       30.57R WCI  -4
KENOSHA        CLEAR      6  -7  54 W7        30.57R WCI  -6
6HR MIN TEMP:   6; 6HR MAX TEMP:  14;

FOND DU LAC    CLEAR     14  -3  47 SW5       30.51S WCI   6
6HR MIN TEMP:  13; 6HR MAX TEMP:  18;

SHEBOYGAN      CLEAR     11  -1  58 SW9       30.52R WCI  -2
6HR MIN TEMP:  11; 6HR MAX TEMP:  16;

WEST BEND      CLEAR     14  -6  41 SW5       30.51S WCI   6
JUNEAU         FAIR      13  -3  49 SW8       30.53S WCI   1
$$

LSZ147-162-280100-
LAKE SUPERIOR

STATION/POSITION TIME  TEMP    WIND        PRES    WAVE
                       AIR SEA DIR/SP/G            HT/PER
                 (UTC) (F)     (DEG/KT/KT) (MB)    (FT/S)
DEVILS ISLAND    2300   17     230/ 15/ 19 1030.5F
PORT WING        2340   19     210/  8/ 11 1029.8S
SAXON HARBOR     2300   20     230/  4/  9 1029.8F
$$

LMZ867-665-643>646-280100-
LAKE MICHIGAN

STATION/POSITION TIME  TEMP    WIND        PRES    WAVE
                       AIR SEA DIR/SP/G            HT/PER
                 (UTC) (F)     (DEG/KT/KT) (MB)    (FT/S)
NORTHPORT PIER   2300   16     180/  3/ 11 1030.8F
SISTER BAY       2313   17     210/ 13/ 16   N/A
KEWAUNEE LAKESHO 2300   17     240/  8/ 13 1031.5F
SHEBOYGAN LAKESH 2300   17     240/ 11/ 12 1035.3S
PORT WASHINGTON  2300   18     250/  7/ 11 1034.5
MILWAUKEE LAKESH 2300   17     240/  9/ 14   N/A
KENOSHA   LAKESH 2300   14     260/ 10/ 12 1035.2S
$$

TC  - TEMPERATURE IN CELSIUS
VSB - VISIBILITY IN STATUTE MILES
WCI - WIND CHILL INDEX
HX  - HEAT INDEX




USA.gov is the U.S. government's official web portal to all federal, state and local government web resources and services.